HISPASAT 30W-5

Last updated on Tue Sep 22 2026 00:03:12 GMT+0000 (Coordinated Universal Time)

1 37264U 10070A 26264.41185034 -.00000220 00000+0 00000+0 0 9999 2 37264 0.0308 122.1720 0005655 47.8374 308.5650 1.00272910 54158
UTC large
Height (km)
Speed (km/s)
/
Latitude / Longitude
Inclination (degrees)
Orbital Period (minutes)
Azimuth
Elevation
Range (km)
Doppler Factor

Next 0 passes for location: London (51.5072 / 0.1276)

No passes found over London.
HISPASAT 30W-5